Radiation Dose at Monitoring Post of Fukushima Daini Nuclear Power Station
Date,Time,MP-1(microSv/h),MP-2(microSv/h),MP-3(microSv/h),MP-4(microSv/h),MP-5(microSv/h),MP-6(microSv/h),MP-7(microSv/h),Wind Direction,Wind Velocity(m/s),Rain
2023/07/12,00:00,0.141,0.129,0.200,0.193,0.207,0.112,0.073,northwest,3.9,No
2023/07/12,00:10,0.140,0.129,0.203,0.193,0.205,0.112,0.073,west-northwest,4.5,No
2023/07/12,00:20,0.139,0.130,0.203,0.195,0.204,0.112,0.073,west-northwest,5.0,No
2023/07/12,00:30,0.142,0.129,0.201,0.193,0.203,0.112,0.073,west-northwest,6.5,No
2023/07/12,00:40,0.141,0.129,0.201,0.193,0.202,0.111,0.074,west-northwest,7.5,No
2023/07/12,00:50,0.140,0.129,0.203,0.192,0.206,0.111,0.073,west-northwest,6.5,No
2023/07/12,01:00,0.139,0.130,0.202,0.194,0.205,0.111,0.072,northwest,5.0,No
2023/07/12,01:10,0.139,0.130,0.201,0.195,0.204,0.112,0.073,northwest,2.6,No
2023/07/12,01:20,0.141,0.130,0.203,0.194,0.205,0.112,0.073,west-northwest,1.1,No
2023/07/12,01:30,0.141,0.128,0.204,0.192,0.201,0.111,0.072,northwest,4.0,No
2023/07/12,01:40,0.140,0.130,0.202,0.195,0.207,0.112,0.073,west-northwest,3.1,No
2023/07/12,01:50,0.140,0.129,0.201,0.195,0.206,0.112,0.073,west-southwest,2.3,No
2023/07/12,02:00,0.140,0.130,0.202,0.193,0.205,0.111,0.073,southwest,1.6,No
2023/07/12,02:10,0.142,0.130,0.204,0.192,0.204,0.111,0.073,south,1.2,No
2023/07/12,02:20,0.140,0.131,0.202,0.195,0.203,0.112,0.073,south-southeast,2.0,No
2023/07/12,02:30,0.140,0.130,0.202,0.195,0.207,0.112,0.073,south,2.9,Yes
2023/07/12,02:40,0.140,0.129,0.204,0.193,0.207,0.112,0.074,south-southwest,2.7,No
2023/07/12,02:50,0.142,0.129,0.202,0.194,0.204,0.113,0.073,south,2.3,Yes
2023/07/12,03:00,0.141,0.130,0.201,0.195,0.203,0.112,0.073,south,2.1,No
2023/07/12,03:10,0.140,0.130,0.204,0.194,0.206,0.112,0.073,south-southwest,2.4,Yes
2023/07/12,03:20,0.141,0.129,0.204,0.193,0.208,0.112,0.074,south-southwest,3.0,No
2023/07/12,03:30,0.142,0.130,0.203,0.193,0.205,0.112,0.073,south,2.9,No
2023/07/12,03:40,0.142,0.130,0.201,0.196,0.203,0.111,0.074,south,2.0,No
2023/07/12,03:50,0.140,0.130,0.205,0.193,0.204,0.112,0.074,south,2.7,No
2023/07/12,04:00,0.140,0.130,0.203,0.194,0.206,0.112,0.073,south-southeast,3.7,No
2023/07/12,04:10,0.143,0.131,0.202,0.194,0.205,0.112,0.073,south-southeast,3.3,No
2023/07/12,04:20,0.142,0.130,0.203,0.196,0.204,0.113,0.073,southeast,4.0,No
2023/07/12,04:30,0.140,0.130,0.203,0.194,0.203,0.113,0.074,south-southeast,3.7,No
2023/07/12,04:40,0.140,0.130,0.202,0.192,0.207,0.113,0.074,south-southeast,2.8,No
2023/07/12,04:50,0.142,0.131,0.201,0.195,0.206,0.113,0.074,south-southwest,1.8,No
2023/07/12,05:00,0.142,0.130,0.203,0.196,0.205,0.112,0.074,southwest,2.1,Yes
2023/07/12,05:10,0.141,0.129,0.204,0.194,0.203,0.113,0.074,south-southwest,1.4,Yes
2023/07/12,05:20,0.140,0.131,0.202,0.193,0.207,0.112,0.073,south-southeast,1.2,No
2023/07/12,05:30,0.143,0.130,0.201,0.196,0.207,0.112,0.073,south,1.6,No
2023/07/12,05:40,0.141,0.130,0.204,0.195,0.206,0.112,0.074,south,1.0,No
2023/07/12,05:50,0.140,0.128,0.203,0.193,0.204,0.114,0.073,south-southwest,1.3,No
2023/07/12,06:00,0.141,0.128,0.201,0.195,0.202,0.113,0.074,southwest,1.4,No
2023/07/12,06:10,0.142,0.129,0.205,0.196,0.203,0.112,0.073,west-southwest,2.7,No
2023/07/12,06:20,0.141,0.129,0.202,0.195,0.205,0.113,0.073,southwest,2.7,No
2023/07/12,06:30,0.141,0.129,0.202,0.194,0.205,0.113,0.073,southwest,2.9,No
2023/07/12,06:40,0.141,0.129,0.201,0.193,0.204,0.112,0.073,southwest,4.1,No
2023/07/12,06:50,0.143,0.130,0.203,0.191,0.204,0.112,0.074,south-southwest,3.3,No
2023/07/12,07:00,0.141,0.129,0.204,0.195,0.204,0.114,0.074,south-southwest,2.7,No
2023/07/12,07:10,0.140,0.130,0.204,0.195,0.204,0.113,0.074,south,2.9,No
2023/07/12,07:20,0.141,0.130,0.203,0.196,0.204,0.113,0.074,south,2.9,No
2023/07/12,07:30,0.141,0.129,0.203,0.195,0.205,0.112,0.074,south-southeast,3.8,No
2023/07/12,07:40,0.142,0.131,0.203,0.194,0.206,0.114,0.074,south-southeast,4.5,No
2023/07/12,07:50,0.142,0.131,0.203,0.194,0.205,0.114,0.075,south,5.7,No
2023/07/12,08:00,0.141,0.130,0.204,0.196,0.205,0.112,0.075,south,6.8,No
2023/07/12,08:10,0.140,0.131,0.202,0.194,0.206,0.113,0.074,south-southeast,6.9,No
2023/07/12,08:20,0.141,0.130,0.203,0.195,0.206,0.113,0.074,south-southeast,7.4,No
2023/07/12,08:30,0.142,0.131,0.203,0.194,0.206,0.114,0.074,south-southeast,6.9,No
2023/07/12,08:40,0.143,0.131,0.205,0.195,0.207,0.114,0.075,south,7.1,No
2023/07/12,08:50,0.141,0.131,0.205,0.195,0.208,0.113,0.075,south-southeast,6.2,No
2023/07/12,09:00,0.141,0.130,0.204,0.195,0.207,0.114,0.074,south-southeast,7.3,No
2023/07/12,09:10,0.142,0.131,0.205,0.196,0.207,0.112,0.074,south,7.5,No
2023/07/12,09:20,0.140,0.131,0.206,0.197,0.209,0.114,0.074,south,6.4,No
2023/07/12,09:30,0.141,0.132,0.205,0.196,0.207,0.113,0.074,south-southeast,7.5,No
2023/07/12,09:40,0.142,0.132,0.204,0.196,0.207,0.114,0.074,south-southeast,7.6,No
2023/07/12,09:50,0.141,0.131,0.205,0.197,0.207,0.113,0.074,south-southeast,9.0,No
2023/07/12,10:00,0.143,0.131,0.204,0.197,0.207,0.113,0.073,south-southeast,9.2,No
2023/07/12,10:10,0.141,0.131,0.203,0.196,0.207,0.113,0.074,south-southeast,8.7,No
2023/07/12,10:20,0.142,0.131,0.204,0.196,0.207,0.114,0.074,south-southeast,8.9,No
2023/07/12,10:30,0.141,0.131,0.205,0.196,0.208,0.112,0.073,south,8.3,No
2023/07/12,10:40,0.141,0.131,0.206,0.198,0.208,0.112,0.074,south,7.6,No
2023/07/12,10:50,0.142,0.131,0.205,0.197,0.208,0.113,0.074,south-southeast,6.5,No
2023/07/12,11:00,0.142,0.132,0.206,0.198,0.207,0.113,0.073,south-southeast,7.5,No
2023/07/12,11:10,0.142,0.132,0.205,0.197,0.207,0.113,0.074,south,9.6,No
2023/07/12,11:20,0.142,0.131,0.205,0.198,0.207,0.114,0.074,south-southeast,8.9,No
2023/07/12,11:30,0.143,0.132,0.205,0.198,0.208,0.114,0.075,south-southeast,8.8,No
2023/07/12,11:40,0.143,0.132,0.205,0.197,0.207,0.113,0.074,south-southeast,9.3,No
2023/07/12,11:50,0.142,0.132,0.205,0.196,0.206,0.113,0.073,south-southeast,9.5,No
2023/07/12,12:00,0.142,0.132,0.205,0.196,0.206,0.113,0.074,south,7.8,No
2023/07/12,12:10,0.142,0.132,0.204,0.196,0.206,0.114,0.074,south-southeast,7.2,No
2023/07/12,12:20,0.143,0.131,0.204,0.196,0.207,0.113,0.074,south-southeast,5.6,Yes
2023/07/12,12:30,0.143,0.130,0.203,0.196,0.207,0.114,0.074,east-northeast,2.4,Yes
2023/07/12,12:40,0.144,0.133,0.205,0.197,0.205,0.116,0.077,northeast,4.5,Yes
2023/07/12,12:50,0.145,0.134,0.206,0.196,0.206,0.117,0.078,southwest,2.8,Yes
2023/07/12,13:00,0.144,0.133,0.205,0.196,0.206,0.117,0.078,south-southwest,1.8,Yes
2023/07/12,13:10,0.143,0.133,0.205,0.196,0.206,0.117,0.078,south,0.9,No
2023/07/12,13:20,0.145,0.133,0.205,0.197,0.207,0.117,0.076,south-southwest,2.2,No
2023/07/12,13:30,0.146,0.132,0.204,0.198,0.207,0.116,0.077,southwest,2.5,No
2023/07/12,13:40,0.144,0.133,0.204,0.198,0.206,0.115,0.075,south-southwest,2.9,Yes
2023/07/12,13:50,0.143,0.132,0.204,0.197,0.207,0.116,0.076,south,5.6,Yes
2023/07/12,14:00,0.144,0.133,0.205,0.196,0.208,0.115,0.076,south-southwest,5.7,Yes
2023/07/12,14:10,0.143,0.131,0.205,0.197,0.207,0.115,0.076,south-southwest,4.7,Yes
2023/07/12,14:20,0.142,0.133,0.207,0.195,0.211,0.116,0.077,south,3.5,No
2023/07/12,14:30,0.142,0.133,0.206,0.197,0.210,0.116,0.077,south-southwest,1.2,No
2023/07/12,14:40,0.143,0.131,0.203,0.198,0.208,0.116,0.076,north-northwest,0.9,Yes
2023/07/12,14:50,0.142,0.130,0.202,0.196,0.206,0.115,0.075,east-southeast,1.2,Yes
2023/07/12,15:00,0.141,0.130,0.205,0.194,0.205,0.114,0.075,southeast,4.5,No
2023/07/12,15:10,0.141,0.131,0.204,0.195,0.209,0.113,0.075,south-southeast,3.4,No
2023/07/12,15:20,0.142,0.130,0.203,0.197,0.206,0.115,0.074,south,3.1,No
2023/07/12,15:30,0.141,0.130,0.202,0.195,0.205,0.114,0.074,south,2.9,No
2023/07/12,15:40,0.142,0.129,0.201,0.194,0.205,0.114,0.074,south,3.0,No
2023/07/12,15:50,0.140,0.130,0.201,0.193,0.204,0.113,0.073,south-southeast,2.5,No
2023/07/12,16:00,0.140,0.130,0.202,0.194,0.203,0.112,0.072,south-southeast,2.1,No
2023/07/12,16:10,0.140,0.130,0.205,0.192,0.203,0.113,0.073,south-southeast,2.2,No
2023/07/12,16:20,0.142,0.130,0.203,0.192,0.203,0.113,0.073,south-southeast,2.7,No
2023/07/12,16:30,0.142,0.130,0.203,0.196,0.203,0.113,0.074,south-southeast,1.9,No
2023/07/12,16:40,0.140,0.128,0.202,0.197,0.207,0.113,0.074,east-southeast,1.9,No
2023/07/12,16:50,0.141,0.129,0.200,0.195,0.207,0.113,0.073,east,1.1,No
2023/07/12,17:00,0.140,0.130,0.203,0.193,0.204,0.112,0.072,south-southwest,1.4,No
2023/07/12,17:10,0.142,0.130,0.204,0.194,0.204,0.113,0.073,west-northwest,0.8,No
2023/07/12,17:20,0.142,0.130,0.203,0.194,0.203,0.113,0.073,northwest,5.7,No
2023/07/12,17:30,0.141,0.129,0.201,0.196,0.205,0.113,0.073,west-northwest,6.3,No
2023/07/12,17:40,0.140,0.129,0.201,0.195,0.204,0.112,0.073,west-northwest,6.5,No
2023/07/12,17:50,0.140,0.130,0.201,0.194,0.204,0.113,0.073,west,7.7,No
2023/07/12,18:00,0.140,0.130,0.204,0.193,0.203,0.112,0.073,west,8.2,No
2023/07/12,18:10,0.143,0.129,0.203,0.192,0.204,0.113,0.073,west,6.8,No
2023/07/12,18:20,0.141,0.129,0.202,0.195,0.207,0.112,0.074,west-northwest,7.6,No
2023/07/12,18:30,0.140,0.129,0.201,0.195,0.208,0.112,0.073,west-northwest,8.2,No
2023/07/12,18:40,0.140,0.130,0.203,0.194,0.206,0.112,0.073,west-northwest,5.6,No
2023/07/12,18:50,0.141,0.129,0.204,0.193,0.205,0.113,0.072,west,7.1,No
2023/07/12,19:00,0.143,0.130,0.202,0.193,0.203,0.112,0.073,west-northwest,6.3,No
2023/07/12,19:10,0.142,0.130,0.201,0.196,0.204,0.112,0.072,west-northwest,6.4,No
2023/07/12,19:20,0.141,0.131,0.204,0.196,0.206,0.114,0.073,west-northwest,4.5,No
2023/07/12,19:30,0.139,0.130,0.204,0.194,0.207,0.112,0.073,west-southwest,3.5,No
2023/07/12,19:40,0.140,0.129,0.202,0.193,0.205,0.112,0.072,southeast,3.2,No
2023/07/12,19:50,0.142,0.129,0.203,0.194,0.205,0.113,0.074,southeast,4.2,No
2023/07/12,20:00,0.142,0.131,0.204,0.197,0.203,0.113,0.073,south-southeast,4.1,No
2023/07/12,20:10,0.140,0.130,0.205,0.195,0.207,0.112,0.073,south-southeast,2.4,Yes
2023/07/12,20:20,0.140,0.129,0.202,0.193,0.207,0.113,0.072,south,1.4,Yes
2023/07/12,20:30,0.142,0.131,0.201,0.193,0.205,0.112,0.073,south-southwest,1.0,Yes
2023/07/12,20:40,0.141,0.131,0.203,0.196,0.204,0.113,0.073,-,CALM,No
2023/07/12,20:50,0.140,0.130,0.205,0.195,0.203,0.113,0.073,north,0.7,No
2023/07/12,21:00,0.140,0.129,0.202,0.194,0.205,0.113,0.073,southeast,1.2,Yes
2023/07/12,21:10,0.143,0.131,0.201,0.195,0.206,0.113,0.073,south,2.2,No
2023/07/12,21:20,0.142,0.129,0.205,0.196,0.205,0.112,0.074,south,2.3,No
2023/07/12,21:30,0.139,0.130,0.203,0.194,0.204,0.113,0.074,south-southwest,2.7,No
2023/07/12,21:40,0.141,0.130,0.202,0.193,0.205,0.113,0.073,south-southwest,2.1,No
2023/07/12,21:50,0.143,0.130,0.204,0.194,0.206,0.113,0.074,southwest,2.1,No
2023/07/12,22:00,0.142,0.131,0.206,0.195,0.207,0.113,0.074,south-southeast,2.0,No
2023/07/12,22:10,0.141,0.130,0.204,0.195,0.205,0.113,0.073,south-southwest,1.7,No
2023/07/12,22:20,0.141,0.131,0.203,0.194,0.205,0.114,0.073,west-southwest,2.7,No
2023/07/12,22:30,0.142,0.131,0.205,0.196,0.207,0.112,0.073,west,1.5,No
2023/07/12,22:40,0.141,0.130,0.203,0.196,0.207,0.113,0.074,west-northwest,0.7,No
2023/07/12,22:50,0.141,0.131,0.203,0.195,0.204,0.113,0.073,south,1.5,No
2023/07/12,23:00,0.143,0.130,0.204,0.194,0.205,0.113,0.074,south-southeast,1.7,No
2023/07/12,23:10,0.143,0.129,0.204,0.197,0.207,0.113,0.074,southwest,1.5,No
2023/07/12,23:20,0.141,0.131,0.203,0.195,0.205,0.113,0.073,west-southwest,2.1,No
2023/07/12,23:30,0.142,0.130,0.203,0.195,0.203,0.113,0.073,west-southwest,2.6,No
2023/07/12,23:40,0.143,0.130,0.204,0.196,0.206,0.113,0.073,west,2.4,No
2023/07/12,23:50,0.142,0.131,0.203,0.196,0.206,0.113,0.073,west-northwest,2.0,Yes
